This is the latest recevied weather packets stored in our database for station/object K1KOF. If no packets are shown the sender has not sent any weather packets the latest 10 day(s).
| Time | Temp. | Humidity | Pressure | Rain* | Wind** | Luminosity | Snow |
|---|---|---|---|---|---|---|---|
| 1778155765 | 18.89° C | 99% | 1020.4 hPa | 0 mm | - | 0 W/m² | - |
| 1778155461 | 18.89° C | 99% | 1019.9 hPa | 0 mm | - | 4 W/m² | - |
| 1778155157 | 18.89° C | 99% | 1020 hPa | 0 mm | - | 6 W/m² | - |
| 1778154853 | 18.89° C | 99% | 1019.9 hPa | 0 mm | - | 15 W/m² | - |
| 1778154549 | 18.89° C | 99% | 1019.7 hPa | 0 mm | - | 23 W/m² | - |
| 1778154246 | 18.89° C | 99% | 1019.7 hPa | 0 mm | - | 17 W/m² | - |
| 1778153944 | 18.89° C | 99% | 1019.3 hPa | 0 mm | - | 29 W/m² | - |
| 1778153641 | 18.89° C | 99% | 1019.4 hPa | 0 mm | - | 20 W/m² | - |
| 1778153338 | 18.89° C | 99% | 1019.4 hPa | 0 mm | - | 12 W/m² | - |
| 1778153035 | 18.89° C | 99% | 1019.4 hPa | 0 mm | - | 9 W/m² | - |
| 1778152733 | 18.89° C | 99% | 1019.5 hPa | 0 mm | - | 5 W/m² | - |
| 1778152429 | 18.89° C | 99% | 1019.6 hPa | 0 mm | - | 2 W/m² | - |
| 1778152125 | 18.89° C | 99% | 1020.1 hPa | 0 mm | - | 0 W/m² | - |
| 1778151822 | 18.89° C | 99% | 1020 hPa | 0 mm | - | 0 W/m² | - |
| 1778151519 | 18.89° C | 99% | 1020.4 hPa | 0 mm | - | 0 W/m² | - |
| 1778151215 | 19.44° C | 99% | 1020.6 hPa | 0 mm | - | 0 W/m² | - |
| 1778150912 | 19.44° C | 99% | 1020.5 hPa | 0 mm | - | 0 W/m² | - |
| 1778150609 | 19.44° C | 99% | 1020.5 hPa | 0 mm | - | 0 W/m² | - |
| 1778150305 | 19.44° C | 99% | 1020.7 hPa | 0 mm | - | 0 W/m² | - |
| 1778150001 | 19.44° C | 99% | 1020.8 hPa | 0 mm | - | 0 W/m² | - |
| 1778149698 | 19.44° C | 99% | 1020.8 hPa | 0 mm | - | 0 W/m² | - |
| 1778149395 | 19.44° C | 99% | 1020.9 hPa | 0 mm | - | 0 W/m² | - |
| 1778149090 | 18.89° C | 99% | 1020.8 hPa | 0 mm | - | 0 W/m² | - |
| 1778148785 | 18.89° C | 99% | 1021 hPa | 0 mm | - | 0 W/m² | - |
| 1778148483 | 19.44° C | 99% | 1020.8 hPa | 0 mm | - | 0 W/m² | - |
* Rain latest hour (hover to see other rain measurements)
** Current wind speed in m/s (hover to see current wind gust speed)